<?xml version="1.0" encoding="UTF-8" standalone="no" ?>
<gpx xmlns="http://www.topografix.com/GPX/1/1" xmlns:xsi="http://www.w3.org/2001/XMLSchema-instance" xsi:schemaLocation="http://www.topografix.com/GPX/1/1 http://www.topografix.com/GPX/1/1/gpx.xsd" version="1.1" creator="VisuGPX - https://www.visugpx.com">
  <metadata>
    <name>Les 3 villages</name>
    <desc><![CDATA[Vareilles-Chigy-Les Sièges- Chemin de petite randonnée, dans la vallée de la Vanne, à la limite de la forêt d'Othe]]></desc>
  </metadata>
  <trk>
    <name><![CDATA[track]]></name>
    <trkseg>
      <trkpt lat="48.19921" lon="3.4781">
        <ele>94</ele>
        <time>2008-01-22T00:00:00Z</time>
      </trkpt>
      <trkpt lat="48.19861" lon="3.47885">
        <ele>95</ele>
        <time>2008-01-22T00:00:00Z</time>
      </trkpt>
      <trkpt lat="48.19849" lon="3.47845">
        <ele>94</ele>
        <time>2008-01-22T00:00:00Z</time>
      </trkpt>
      <trkpt lat="48.1983" lon="3.47796">
        <ele>93</ele>
        <time>2008-01-22T00:00:00Z</time>
      </trkpt>
      <trkpt lat="48.19708" lon="3.47709">
        <ele>92</ele>
        <time>2008-01-22T00:00:00Z</time>
      </trkpt>
      <trkpt lat="48.19694" lon="3.47694">
        <ele>92</ele>
        <time>2008-01-22T00:00:00Z</time>
      </trkpt>
      <trkpt lat="48.19648" lon="3.47644">
        <ele>92</ele>
        <time>2008-01-22T00:00:00Z</time>
      </trkpt>
      <trkpt lat="48.19478" lon="3.47548">
        <ele>92</ele>
        <time>2008-01-22T00:00:00Z</time>
      </trkpt>
      <trkpt lat="48.19453" lon="3.47541">
        <ele>92</ele>
        <time>2008-01-22T00:00:00Z</time>
      </trkpt>
      <trkpt lat="48.19373" lon="3.47517">
        <ele>93</ele>
        <time>2008-01-22T00:00:00Z</time>
      </trkpt>
      <trkpt lat="48.19286" lon="3.47475">
        <ele>93</ele>
        <time>2008-01-22T00:00:00Z</time>
      </trkpt>
      <trkpt lat="48.19252" lon="3.47451">
        <ele>92</ele>
        <time>2008-01-22T00:00:00Z</time>
      </trkpt>
      <trkpt lat="48.19195" lon="3.47405">
        <ele>92</ele>
        <time>2008-01-22T00:00:00Z</time>
      </trkpt>
      <trkpt lat="48.19184" lon="3.47386">
        <ele>92</ele>
        <time>2008-01-22T00:00:00Z</time>
      </trkpt>
      <trkpt lat="48.19157" lon="3.47351">
        <ele>91</ele>
        <time>2008-01-22T00:00:00Z</time>
      </trkpt>
      <trkpt lat="48.19062" lon="3.47257">
        <ele>91</ele>
        <time>2008-01-22T00:00:00Z</time>
      </trkpt>
      <trkpt lat="48.19043" lon="3.47233">
        <ele>91</ele>
        <time>2008-01-22T00:00:00Z</time>
      </trkpt>
      <trkpt lat="48.189" lon="3.46982">
        <ele>91</ele>
        <time>2008-01-22T00:00:00Z</time>
      </trkpt>
      <trkpt lat="48.18732" lon="3.46703">
        <ele>92</ele>
        <time>2008-01-22T00:00:00Z</time>
      </trkpt>
      <trkpt lat="48.18713" lon="3.46639">
        <ele>91</ele>
        <time>2008-01-22T00:00:00Z</time>
      </trkpt>
      <trkpt lat="48.18698" lon="3.46645">
        <ele>92</ele>
        <time>2008-01-22T00:00:00Z</time>
      </trkpt>
      <trkpt lat="48.18685" lon="3.46643">
        <ele>92</ele>
        <time>2008-01-22T00:00:00Z</time>
      </trkpt>
      <trkpt lat="48.18651" lon="3.46628">
        <ele>93</ele>
        <time>2008-01-22T00:00:00Z</time>
      </trkpt>
      <trkpt lat="48.18639" lon="3.46627">
        <ele>93</ele>
        <time>2008-01-22T00:00:00Z</time>
      </trkpt>
      <trkpt lat="48.18617" lon="3.46632">
        <ele>93</ele>
        <time>2008-01-22T00:00:00Z</time>
      </trkpt>
      <trkpt lat="48.18547" lon="3.46658">
        <ele>93</ele>
        <time>2008-01-22T00:00:00Z</time>
      </trkpt>
      <trkpt lat="48.18512" lon="3.46682">
        <ele>93</ele>
        <time>2008-01-22T00:00:00Z</time>
      </trkpt>
      <trkpt lat="48.18423" lon="3.46765">
        <ele>94</ele>
        <time>2008-01-22T00:00:00Z</time>
      </trkpt>
      <trkpt lat="48.184" lon="3.46779">
        <ele>95</ele>
        <time>2008-01-22T00:00:00Z</time>
      </trkpt>
      <trkpt lat="48.18383" lon="3.46779">
        <ele>95</ele>
        <time>2008-01-22T00:00:00Z</time>
      </trkpt>
      <trkpt lat="48.18266" lon="3.46747">
        <ele>96</ele>
        <time>2008-01-22T00:00:00Z</time>
      </trkpt>
      <trkpt lat="48.1819" lon="3.46764">
        <ele>97</ele>
        <time>2008-01-22T00:00:00Z</time>
      </trkpt>
      <trkpt lat="48.18133" lon="3.46792">
        <ele>96</ele>
        <time>2008-01-22T00:00:00Z</time>
      </trkpt>
      <trkpt lat="48.1811" lon="3.46809">
        <ele>96</ele>
        <time>2008-01-22T00:00:00Z</time>
      </trkpt>
      <trkpt lat="48.18098" lon="3.46807">
        <ele>96</ele>
        <time>2008-01-22T00:00:00Z</time>
      </trkpt>
      <trkpt lat="48.1809" lon="3.46797">
        <ele>96</ele>
        <time>2008-01-22T00:00:00Z</time>
      </trkpt>
      <trkpt lat="48.18074" lon="3.46767">
        <ele>95</ele>
        <time>2008-01-22T00:00:00Z</time>
      </trkpt>
      <trkpt lat="48.18064" lon="3.46761">
        <ele>95</ele>
        <time>2008-01-22T00:00:00Z</time>
      </trkpt>
      <trkpt lat="48.17975" lon="3.46822">
        <ele>98</ele>
        <time>2008-01-22T00:00:00Z</time>
      </trkpt>
      <trkpt lat="48.17955" lon="3.46843">
        <ele>98</ele>
        <time>2008-01-22T00:00:00Z</time>
      </trkpt>
      <trkpt lat="48.17837" lon="3.4699">
        <ele>99</ele>
        <time>2008-01-22T00:00:00Z</time>
      </trkpt>
      <trkpt lat="48.17783" lon="3.47048">
        <ele>103</ele>
        <time>2008-01-22T00:00:00Z</time>
      </trkpt>
      <trkpt lat="48.17749" lon="3.47081">
        <ele>103</ele>
        <time>2008-01-22T00:00:00Z</time>
      </trkpt>
      <trkpt lat="48.17739" lon="3.4708">
        <ele>103</ele>
        <time>2008-01-22T00:00:00Z</time>
      </trkpt>
      <trkpt lat="48.17713" lon="3.47035">
        <ele>102</ele>
        <time>2008-01-22T00:00:00Z</time>
      </trkpt>
      <trkpt lat="48.17704" lon="3.47006">
        <ele>103</ele>
        <time>2008-01-22T00:00:00Z</time>
      </trkpt>
      <trkpt lat="48.177" lon="3.46989">
        <ele>102</ele>
        <time>2008-01-22T00:00:00Z</time>
      </trkpt>
      <trkpt lat="48.177" lon="3.46973">
        <ele>102</ele>
        <time>2008-01-22T00:00:00Z</time>
      </trkpt>
      <trkpt lat="48.17668" lon="3.46893">
        <ele>102</ele>
        <time>2008-01-22T00:00:00Z</time>
      </trkpt>
      <trkpt lat="48.1765" lon="3.46875">
        <ele>103</ele>
        <time>2008-01-22T00:00:00Z</time>
      </trkpt>
      <trkpt lat="48.17616" lon="3.46813">
        <ele>103</ele>
        <time>2008-01-22T00:00:00Z</time>
      </trkpt>
      <trkpt lat="48.17599" lon="3.46834">
        <ele>103</ele>
        <time>2008-01-22T00:00:00Z</time>
      </trkpt>
      <trkpt lat="48.17532" lon="3.469">
        <ele>107</ele>
        <time>2008-01-22T00:00:00Z</time>
      </trkpt>
      <trkpt lat="48.17483" lon="3.46943">
        <ele>108</ele>
        <time>2008-01-22T00:00:00Z</time>
      </trkpt>
      <trkpt lat="48.17462" lon="3.46956">
        <ele>108</ele>
        <time>2008-01-22T00:00:00Z</time>
      </trkpt>
      <trkpt lat="48.17445" lon="3.46962">
        <ele>109</ele>
        <time>2008-01-22T00:00:00Z</time>
      </trkpt>
      <trkpt lat="48.17394" lon="3.46982">
        <ele>110</ele>
        <time>2008-01-22T00:00:00Z</time>
      </trkpt>
      <trkpt lat="48.17379" lon="3.46996">
        <ele>110</ele>
        <time>2008-01-22T00:00:00Z</time>
      </trkpt>
      <trkpt lat="48.17277" lon="3.47115">
        <ele>111</ele>
        <time>2008-01-22T00:00:00Z</time>
      </trkpt>
      <trkpt lat="48.17233" lon="3.4719">
        <ele>109</ele>
        <time>2008-01-22T00:00:00Z</time>
      </trkpt>
      <trkpt lat="48.17235" lon="3.47197">
        <ele>109</ele>
        <time>2008-01-22T00:00:00Z</time>
      </trkpt>
      <trkpt lat="48.17198" lon="3.47322">
        <ele>106</ele>
        <time>2008-01-22T00:00:00Z</time>
      </trkpt>
      <trkpt lat="48.17182" lon="3.47348">
        <ele>105</ele>
        <time>2008-01-22T00:00:00Z</time>
      </trkpt>
      <trkpt lat="48.17105" lon="3.47398">
        <ele>106</ele>
        <time>2008-01-22T00:00:00Z</time>
      </trkpt>
      <trkpt lat="48.17087" lon="3.4742">
        <ele>106</ele>
        <time>2008-01-22T00:00:00Z</time>
      </trkpt>
      <trkpt lat="48.17075" lon="3.47472">
        <ele>106</ele>
        <time>2008-01-22T00:00:00Z</time>
      </trkpt>
      <trkpt lat="48.17072" lon="3.47536">
        <ele>106</ele>
        <time>2008-01-22T00:00:00Z</time>
      </trkpt>
      <trkpt lat="48.1715" lon="3.47529">
        <ele>106</ele>
        <time>2008-01-22T00:00:00Z</time>
      </trkpt>
      <trkpt lat="48.17174" lon="3.47517">
        <ele>105</ele>
        <time>2008-01-22T00:00:00Z</time>
      </trkpt>
      <trkpt lat="48.17192" lon="3.47502">
        <ele>105</ele>
        <time>2008-01-22T00:00:00Z</time>
      </trkpt>
      <trkpt lat="48.17201" lon="3.47498">
        <ele>104</ele>
        <time>2008-01-22T00:00:00Z</time>
      </trkpt>
      <trkpt lat="48.172" lon="3.47509">
        <ele>105</ele>
        <time>2008-01-22T00:00:00Z</time>
      </trkpt>
      <trkpt lat="48.17183" lon="3.47622">
        <ele>106</ele>
        <time>2008-01-22T00:00:00Z</time>
      </trkpt>
      <trkpt lat="48.17171" lon="3.47712">
        <ele>110</ele>
        <time>2008-01-22T00:00:00Z</time>
      </trkpt>
      <trkpt lat="48.17162" lon="3.4775">
        <ele>109</ele>
        <time>2008-01-22T00:00:00Z</time>
      </trkpt>
      <trkpt lat="48.17151" lon="3.47764">
        <ele>111</ele>
        <time>2008-01-22T00:00:00Z</time>
      </trkpt>
      <trkpt lat="48.17111" lon="3.47813">
        <ele>111</ele>
        <time>2008-01-22T00:00:00Z</time>
      </trkpt>
      <trkpt lat="48.17098" lon="3.47851">
        <ele>114</ele>
        <time>2008-01-22T00:00:00Z</time>
      </trkpt>
      <trkpt lat="48.17082" lon="3.4791">
        <ele>115</ele>
        <time>2008-01-22T00:00:00Z</time>
      </trkpt>
      <trkpt lat="48.1708" lon="3.47965">
        <ele>116</ele>
        <time>2008-01-22T00:00:00Z</time>
      </trkpt>
      <trkpt lat="48.17081" lon="3.48008">
        <ele>118</ele>
        <time>2008-01-22T00:00:00Z</time>
      </trkpt>
      <trkpt lat="48.17087" lon="3.48051">
        <ele>122</ele>
        <time>2008-01-22T00:00:00Z</time>
      </trkpt>
      <trkpt lat="48.17104" lon="3.48145">
        <ele>124</ele>
        <time>2008-01-22T00:00:00Z</time>
      </trkpt>
      <trkpt lat="48.1711" lon="3.48194">
        <ele>126</ele>
        <time>2008-01-22T00:00:00Z</time>
      </trkpt>
      <trkpt lat="48.172" lon="3.48344">
        <ele>138</ele>
        <time>2008-01-22T00:00:00Z</time>
      </trkpt>
      <trkpt lat="48.17253" lon="3.48432">
        <ele>150</ele>
        <time>2008-01-22T00:00:00Z</time>
      </trkpt>
      <trkpt lat="48.1732" lon="3.48537">
        <ele>160</ele>
        <time>2008-01-22T00:00:00Z</time>
      </trkpt>
      <trkpt lat="48.17335" lon="3.48576">
        <ele>163</ele>
        <time>2008-01-22T00:00:00Z</time>
      </trkpt>
      <trkpt lat="48.17349" lon="3.48824">
        <ele>165.301773</ele>
        <time>2008-01-22T00:00:00Z</time>
      </trkpt>
      <trkpt lat="48.17384" lon="3.48825">
        <ele>166.232498</ele>
        <time>2008-01-22T00:00:00Z</time>
      </trkpt>
      <trkpt lat="48.17345" lon="3.49278">
        <ele>182.869995</ele>
        <time>2008-01-22T00:00:00Z</time>
      </trkpt>
      <trkpt lat="48.17471" lon="3.49316">
        <ele>178.298752</ele>
        <time>2008-01-22T00:00:00Z</time>
      </trkpt>
      <trkpt lat="48.17685" lon="3.49368">
        <ele>181.197495</ele>
        <time>2008-01-22T00:00:00Z</time>
      </trkpt>
      <trkpt lat="48.1778" lon="3.49392">
        <ele>184</ele>
        <time>2008-01-22T00:00:00Z</time>
      </trkpt>
      <trkpt lat="48.17814" lon="3.49402">
        <ele>183</ele>
        <time>2008-01-22T00:00:00Z</time>
      </trkpt>
      <trkpt lat="48.17834" lon="3.49419">
        <ele>180</ele>
        <time>2008-01-22T00:00:00Z</time>
      </trkpt>
      <trkpt lat="48.17846" lon="3.49437">
        <ele>177</ele>
        <time>2008-01-22T00:00:00Z</time>
      </trkpt>
      <trkpt lat="48.17872" lon="3.49492">
        <ele>175</ele>
        <time>2008-01-22T00:00:00Z</time>
      </trkpt>
      <trkpt lat="48.17891" lon="3.49513">
        <ele>171</ele>
        <time>2008-01-22T00:00:00Z</time>
      </trkpt>
      <trkpt lat="48.17912" lon="3.49527">
        <ele>170</ele>
        <time>2008-01-22T00:00:00Z</time>
      </trkpt>
      <trkpt lat="48.17945" lon="3.49542">
        <ele>160</ele>
        <time>2008-01-22T00:00:00Z</time>
      </trkpt>
      <trkpt lat="48.17955" lon="3.49549">
        <ele>159</ele>
        <time>2008-01-22T00:00:00Z</time>
      </trkpt>
      <trkpt lat="48.17963" lon="3.4956">
        <ele>158</ele>
        <time>2008-01-22T00:00:00Z</time>
      </trkpt>
      <trkpt lat="48.17967" lon="3.49576">
        <ele>157</ele>
        <time>2008-01-22T00:00:00Z</time>
      </trkpt>
      <trkpt lat="48.17978" lon="3.49637">
        <ele>153</ele>
        <time>2008-01-22T00:00:00Z</time>
      </trkpt>
      <trkpt lat="48.17984" lon="3.49659">
        <ele>151</ele>
        <time>2008-01-22T00:00:00Z</time>
      </trkpt>
      <trkpt lat="48.18002" lon="3.49723">
        <ele>143</ele>
        <time>2008-01-22T00:00:00Z</time>
      </trkpt>
      <trkpt lat="48.18007" lon="3.49747">
        <ele>144</ele>
        <time>2008-01-22T00:00:00Z</time>
      </trkpt>
      <trkpt lat="48.18009" lon="3.49772">
        <ele>142</ele>
        <time>2008-01-22T00:00:00Z</time>
      </trkpt>
      <trkpt lat="48.18009" lon="3.49833">
        <ele>141</ele>
        <time>2008-01-22T00:00:00Z</time>
      </trkpt>
      <trkpt lat="48.18002" lon="3.4989">
        <ele>137</ele>
        <time>2008-01-22T00:00:00Z</time>
      </trkpt>
      <trkpt lat="48.17992" lon="3.49979">
        <ele>136</ele>
        <time>2008-01-22T00:00:00Z</time>
      </trkpt>
      <trkpt lat="48.1799" lon="3.50035">
        <ele>137</ele>
        <time>2008-01-22T00:00:00Z</time>
      </trkpt>
      <trkpt lat="48.1799" lon="3.50115">
        <ele>138</ele>
        <time>2008-01-22T00:00:00Z</time>
      </trkpt>
      <trkpt lat="48.17988" lon="3.50268">
        <ele>139</ele>
        <time>2008-01-22T00:00:00Z</time>
      </trkpt>
      <trkpt lat="48.1799" lon="3.50303">
        <ele>140</ele>
        <time>2008-01-22T00:00:00Z</time>
      </trkpt>
      <trkpt lat="48.17994" lon="3.50338">
        <ele>139</ele>
        <time>2008-01-22T00:00:00Z</time>
      </trkpt>
      <trkpt lat="48.18004" lon="3.50376">
        <ele>136</ele>
        <time>2008-01-22T00:00:00Z</time>
      </trkpt>
      <trkpt lat="48.18015" lon="3.5041">
        <ele>136</ele>
        <time>2008-01-22T00:00:00Z</time>
      </trkpt>
      <trkpt lat="48.18054" lon="3.50516">
        <ele>134</ele>
        <time>2008-01-22T00:00:00Z</time>
      </trkpt>
      <trkpt lat="48.18064" lon="3.50554">
        <ele>133</ele>
        <time>2008-01-22T00:00:00Z</time>
      </trkpt>
      <trkpt lat="48.18068" lon="3.50588">
        <ele>133</ele>
        <time>2008-01-22T00:00:00Z</time>
      </trkpt>
      <trkpt lat="48.18068" lon="3.50611">
        <ele>133</ele>
        <time>2008-01-22T00:00:00Z</time>
      </trkpt>
      <trkpt lat="48.18066" lon="3.5064">
        <ele>133</ele>
        <time>2008-01-22T00:00:00Z</time>
      </trkpt>
      <trkpt lat="48.18056" lon="3.50737">
        <ele>131</ele>
        <time>2008-01-22T00:00:00Z</time>
      </trkpt>
      <trkpt lat="48.18055" lon="3.50766">
        <ele>130</ele>
        <time>2008-01-22T00:00:00Z</time>
      </trkpt>
      <trkpt lat="48.18046" lon="3.50814">
        <ele>129</ele>
        <time>2008-01-22T00:00:00Z</time>
      </trkpt>
      <trkpt lat="48.18035" lon="3.50901">
        <ele>128</ele>
        <time>2008-01-22T00:00:00Z</time>
      </trkpt>
      <trkpt lat="48.18032" lon="3.50968">
        <ele>128</ele>
        <time>2008-01-22T00:00:00Z</time>
      </trkpt>
      <trkpt lat="48.18032" lon="3.51052">
        <ele>128</ele>
        <time>2008-01-22T00:00:00Z</time>
      </trkpt>
      <trkpt lat="48.18032" lon="3.51089">
        <ele>129</ele>
        <time>2008-01-22T00:00:00Z</time>
      </trkpt>
      <trkpt lat="48.18016" lon="3.51235">
        <ele>133</ele>
        <time>2008-01-22T00:00:00Z</time>
      </trkpt>
      <trkpt lat="48.17988" lon="3.51481">
        <ele>132</ele>
        <time>2008-01-22T00:00:00Z</time>
      </trkpt>
      <trkpt lat="48.17981" lon="3.51488">
        <ele>132</ele>
        <time>2008-01-22T00:00:00Z</time>
      </trkpt>
      <trkpt lat="48.1783" lon="3.51504">
        <ele>136</ele>
        <time>2008-01-22T00:00:00Z</time>
      </trkpt>
      <trkpt lat="48.17752" lon="3.51526">
        <ele>140</ele>
        <time>2008-01-22T00:00:00Z</time>
      </trkpt>
      <trkpt lat="48.17741" lon="3.51533">
        <ele>142</ele>
        <time>2008-01-22T00:00:00Z</time>
      </trkpt>
      <trkpt lat="48.17718" lon="3.51599">
        <ele>142</ele>
        <time>2008-01-22T00:00:00Z</time>
      </trkpt>
      <trkpt lat="48.17719" lon="3.51622">
        <ele>142</ele>
        <time>2008-01-22T00:00:00Z</time>
      </trkpt>
      <trkpt lat="48.17726" lon="3.51632">
        <ele>142</ele>
        <time>2008-01-22T00:00:00Z</time>
      </trkpt>
      <trkpt lat="48.17774" lon="3.51626">
        <ele>138</ele>
        <time>2008-01-22T00:00:00Z</time>
      </trkpt>
      <trkpt lat="48.17801" lon="3.51631">
        <ele>137</ele>
        <time>2008-01-22T00:00:00Z</time>
      </trkpt>
      <trkpt lat="48.17865" lon="3.51654">
        <ele>133</ele>
        <time>2008-01-22T00:00:00Z</time>
      </trkpt>
      <trkpt lat="48.17994" lon="3.51686">
        <ele>129</ele>
        <time>2008-01-22T00:00:00Z</time>
      </trkpt>
      <trkpt lat="48.18025" lon="3.51701">
        <ele>127</ele>
        <time>2008-01-22T00:00:00Z</time>
      </trkpt>
      <trkpt lat="48.18051" lon="3.51721">
        <ele>127</ele>
        <time>2008-01-22T00:00:00Z</time>
      </trkpt>
      <trkpt lat="48.18065" lon="3.51733">
        <ele>127</ele>
        <time>2008-01-22T00:00:00Z</time>
      </trkpt>
      <trkpt lat="48.18086" lon="3.51744">
        <ele>126</ele>
        <time>2008-01-22T00:00:00Z</time>
      </trkpt>
      <trkpt lat="48.18094" lon="3.51757">
        <ele>126</ele>
        <time>2008-01-22T00:00:00Z</time>
      </trkpt>
      <trkpt lat="48.18096" lon="3.51778">
        <ele>125</ele>
        <time>2008-01-22T00:00:00Z</time>
      </trkpt>
      <trkpt lat="48.18093" lon="3.51819">
        <ele>126</ele>
        <time>2008-01-22T00:00:00Z</time>
      </trkpt>
      <trkpt lat="48.18093" lon="3.51851">
        <ele>125</ele>
        <time>2008-01-22T00:00:00Z</time>
      </trkpt>
      <trkpt lat="48.18092" lon="3.51911">
        <ele>125</ele>
        <time>2008-01-22T00:00:00Z</time>
      </trkpt>
      <trkpt lat="48.18078" lon="3.52072">
        <ele>129</ele>
        <time>2008-01-22T00:00:00Z</time>
      </trkpt>
      <trkpt lat="48.18084" lon="3.52082">
        <ele>130</ele>
        <time>2008-01-22T00:00:00Z</time>
      </trkpt>
      <trkpt lat="48.18196" lon="3.52095">
        <ele>129</ele>
        <time>2008-01-22T00:00:00Z</time>
      </trkpt>
      <trkpt lat="48.18226" lon="3.52101">
        <ele>129</ele>
        <time>2008-01-22T00:00:00Z</time>
      </trkpt>
      <trkpt lat="48.18261" lon="3.52118">
        <ele>133</ele>
        <time>2008-01-22T00:00:00Z</time>
      </trkpt>
      <trkpt lat="48.18302" lon="3.52141">
        <ele>135</ele>
        <time>2008-01-22T00:00:00Z</time>
      </trkpt>
      <trkpt lat="48.18321" lon="3.52156">
        <ele>136</ele>
        <time>2008-01-22T00:00:00Z</time>
      </trkpt>
      <trkpt lat="48.18341" lon="3.52164">
        <ele>139</ele>
        <time>2008-01-22T00:00:00Z</time>
      </trkpt>
      <trkpt lat="48.1836" lon="3.52171">
        <ele>138</ele>
        <time>2008-01-22T00:00:00Z</time>
      </trkpt>
      <trkpt lat="48.18366" lon="3.52167">
        <ele>142</ele>
        <time>2008-01-22T00:00:00Z</time>
      </trkpt>
      <trkpt lat="48.18361" lon="3.52019">
        <ele>146</ele>
        <time>2008-01-22T00:00:00Z</time>
      </trkpt>
      <trkpt lat="48.18363" lon="3.51987">
        <ele>145</ele>
        <time>2008-01-22T00:00:00Z</time>
      </trkpt>
      <trkpt lat="48.1837" lon="3.51956">
        <ele>146</ele>
        <time>2008-01-22T00:00:00Z</time>
      </trkpt>
      <trkpt lat="48.18384" lon="3.51919">
        <ele>148</ele>
        <time>2008-01-22T00:00:00Z</time>
      </trkpt>
      <trkpt lat="48.18397" lon="3.51896">
        <ele>148</ele>
        <time>2008-01-22T00:00:00Z</time>
      </trkpt>
      <trkpt lat="48.18408" lon="3.51884">
        <ele>148</ele>
        <time>2008-01-22T00:00:00Z</time>
      </trkpt>
      <trkpt lat="48.18438" lon="3.5186">
        <ele>157</ele>
        <time>2008-01-22T00:00:00Z</time>
      </trkpt>
      <trkpt lat="48.18462" lon="3.51849">
        <ele>159</ele>
        <time>2008-01-22T00:00:00Z</time>
      </trkpt>
      <trkpt lat="48.18492" lon="3.51842">
        <ele>161</ele>
        <time>2008-01-22T00:00:00Z</time>
      </trkpt>
      <trkpt lat="48.18547" lon="3.51834">
        <ele>167</ele>
        <time>2008-01-22T00:00:00Z</time>
      </trkpt>
      <trkpt lat="48.18614" lon="3.51829">
        <ele>170</ele>
        <time>2008-01-22T00:00:00Z</time>
      </trkpt>
      <trkpt lat="48.1864" lon="3.51832">
        <ele>171</ele>
        <time>2008-01-22T00:00:00Z</time>
      </trkpt>
      <trkpt lat="48.18667" lon="3.51843">
        <ele>176</ele>
        <time>2008-01-22T00:00:00Z</time>
      </trkpt>
      <trkpt lat="48.18694" lon="3.51858">
        <ele>178</ele>
        <time>2008-01-22T00:00:00Z</time>
      </trkpt>
      <trkpt lat="48.18715" lon="3.51864">
        <ele>179</ele>
        <time>2008-01-22T00:00:00Z</time>
      </trkpt>
      <trkpt lat="48.18738" lon="3.51864">
        <ele>180</ele>
        <time>2008-01-22T00:00:00Z</time>
      </trkpt>
      <trkpt lat="48.18934" lon="3.51865">
        <ele>199</ele>
        <time>2008-01-22T00:00:00Z</time>
      </trkpt>
      <trkpt lat="48.18944" lon="3.51859">
        <ele>199</ele>
        <time>2008-01-22T00:00:00Z</time>
      </trkpt>
      <trkpt lat="48.18954" lon="3.51847">
        <ele>200</ele>
        <time>2008-01-22T00:00:00Z</time>
      </trkpt>
      <trkpt lat="48.18962" lon="3.51831">
        <ele>202</ele>
        <time>2008-01-22T00:00:00Z</time>
      </trkpt>
      <trkpt lat="48.18991" lon="3.51743">
        <ele>207</ele>
        <time>2008-01-22T00:00:00Z</time>
      </trkpt>
      <trkpt lat="48.18992" lon="3.51727">
        <ele>206</ele>
        <time>2008-01-22T00:00:00Z</time>
      </trkpt>
      <trkpt lat="48.18993" lon="3.51629">
        <ele>209</ele>
        <time>2008-01-22T00:00:00Z</time>
      </trkpt>
      <trkpt lat="48.19" lon="3.51532">
        <ele>210</ele>
        <time>2008-01-22T00:00:00Z</time>
      </trkpt>
      <trkpt lat="48.19009" lon="3.51463">
        <ele>213</ele>
        <time>2008-01-22T00:00:00Z</time>
      </trkpt>
      <trkpt lat="48.19015" lon="3.51425">
        <ele>213</ele>
        <time>2008-01-22T00:00:00Z</time>
      </trkpt>
      <trkpt lat="48.19016" lon="3.51395">
        <ele>212</ele>
        <time>2008-01-22T00:00:00Z</time>
      </trkpt>
      <trkpt lat="48.19018" lon="3.5133">
        <ele>210</ele>
        <time>2008-01-22T00:00:00Z</time>
      </trkpt>
      <trkpt lat="48.19016" lon="3.51185">
        <ele>208</ele>
        <time>2008-01-22T00:00:00Z</time>
      </trkpt>
      <trkpt lat="48.19019" lon="3.51059">
        <ele>207</ele>
        <time>2008-01-22T00:00:00Z</time>
      </trkpt>
      <trkpt lat="48.19028" lon="3.50887">
        <ele>203</ele>
        <time>2008-01-22T00:00:00Z</time>
      </trkpt>
      <trkpt lat="48.19034" lon="3.50839">
        <ele>203</ele>
        <time>2008-01-22T00:00:00Z</time>
      </trkpt>
      <trkpt lat="48.19042" lon="3.50803">
        <ele>202</ele>
        <time>2008-01-22T00:00:00Z</time>
      </trkpt>
      <trkpt lat="48.19061" lon="3.50738">
        <ele>200</ele>
        <time>2008-01-22T00:00:00Z</time>
      </trkpt>
      <trkpt lat="48.19084" lon="3.50657">
        <ele>196</ele>
        <time>2008-01-22T00:00:00Z</time>
      </trkpt>
      <trkpt lat="48.1909" lon="3.50622">
        <ele>194</ele>
        <time>2008-01-22T00:00:00Z</time>
      </trkpt>
      <trkpt lat="48.19113" lon="3.5045">
        <ele>184</ele>
        <time>2008-01-22T00:00:00Z</time>
      </trkpt>
      <trkpt lat="48.19125" lon="3.50347">
        <ele>176</ele>
        <time>2008-01-22T00:00:00Z</time>
      </trkpt>
      <trkpt lat="48.19127" lon="3.50308">
        <ele>171</ele>
        <time>2008-01-22T00:00:00Z</time>
      </trkpt>
      <trkpt lat="48.19139" lon="3.50322">
        <ele>172</ele>
        <time>2008-01-22T00:00:00Z</time>
      </trkpt>
      <trkpt lat="48.19157" lon="3.50349">
        <ele>176</ele>
        <time>2008-01-22T00:00:00Z</time>
      </trkpt>
      <trkpt lat="48.19171" lon="3.50375">
        <ele>177</ele>
        <time>2008-01-22T00:00:00Z</time>
      </trkpt>
      <trkpt lat="48.19179" lon="3.50375">
        <ele>177</ele>
        <time>2008-01-22T00:00:00Z</time>
      </trkpt>
      <trkpt lat="48.19232" lon="3.50319">
        <ele>171</ele>
        <time>2008-01-22T00:00:00Z</time>
      </trkpt>
      <trkpt lat="48.19236" lon="3.50308">
        <ele>171</ele>
        <time>2008-01-22T00:00:00Z</time>
      </trkpt>
      <trkpt lat="48.19237" lon="3.50293">
        <ele>171</ele>
        <time>2008-01-22T00:00:00Z</time>
      </trkpt>
      <trkpt lat="48.19234" lon="3.50228">
        <ele>168</ele>
        <time>2008-01-22T00:00:00Z</time>
      </trkpt>
      <trkpt lat="48.19238" lon="3.50217">
        <ele>168</ele>
        <time>2008-01-22T00:00:00Z</time>
      </trkpt>
      <trkpt lat="48.19278" lon="3.50171">
        <ele>163</ele>
        <time>2008-01-22T00:00:00Z</time>
      </trkpt>
      <trkpt lat="48.19279" lon="3.50163">
        <ele>161</ele>
        <time>2008-01-22T00:00:00Z</time>
      </trkpt>
      <trkpt lat="48.19278" lon="3.50153">
        <ele>161</ele>
        <time>2008-01-22T00:00:00Z</time>
      </trkpt>
      <trkpt lat="48.19219" lon="3.50039">
        <ele>159</ele>
        <time>2008-01-22T00:00:00Z</time>
      </trkpt>
      <trkpt lat="48.19217" lon="3.50026">
        <ele>158</ele>
        <time>2008-01-22T00:00:00Z</time>
      </trkpt>
      <trkpt lat="48.19222" lon="3.50017">
        <ele>158</ele>
        <time>2008-01-22T00:00:00Z</time>
      </trkpt>
      <trkpt lat="48.19362" lon="3.49798">
        <ele>140</ele>
        <time>2008-01-22T00:00:00Z</time>
      </trkpt>
      <trkpt lat="48.1912" lon="3.49367">
        <ele>130</ele>
        <time>2008-01-22T00:00:00Z</time>
      </trkpt>
      <trkpt lat="48.1912" lon="3.49357">
        <ele>130</ele>
        <time>2008-01-22T00:00:00Z</time>
      </trkpt>
      <trkpt lat="48.19216" lon="3.49193">
        <ele>119</ele>
        <time>2008-01-22T00:00:00Z</time>
      </trkpt>
      <trkpt lat="48.19388" lon="3.48898">
        <ele>116</ele>
        <time>2008-01-22T00:00:00Z</time>
      </trkpt>
      <trkpt lat="48.19565" lon="3.48594">
        <ele>107</ele>
        <time>2008-01-22T00:00:00Z</time>
      </trkpt>
      <trkpt lat="48.19586" lon="3.48549">
        <ele>105</ele>
        <time>2008-01-22T00:00:00Z</time>
      </trkpt>
      <trkpt lat="48.19607" lon="3.485">
        <ele>104</ele>
        <time>2008-01-22T00:00:00Z</time>
      </trkpt>
      <trkpt lat="48.19621" lon="3.48476">
        <ele>101</ele>
        <time>2008-01-22T00:00:00Z</time>
      </trkpt>
      <trkpt lat="48.19681" lon="3.48391">
        <ele>98</ele>
        <time>2008-01-22T00:00:00Z</time>
      </trkpt>
      <trkpt lat="48.19691" lon="3.48371">
        <ele>98</ele>
        <time>2008-01-22T00:00:00Z</time>
      </trkpt>
      <trkpt lat="48.19715" lon="3.48314">
        <ele>97</ele>
        <time>2008-01-22T00:00:00Z</time>
      </trkpt>
      <trkpt lat="48.1973" lon="3.48272">
        <ele>97</ele>
        <time>2008-01-22T00:00:00Z</time>
      </trkpt>
      <trkpt lat="48.19736" lon="3.48248">
        <ele>97</ele>
        <time>2008-01-22T00:00:00Z</time>
      </trkpt>
      <trkpt lat="48.1974" lon="3.48236">
        <ele>97</ele>
        <time>2008-01-22T00:00:00Z</time>
      </trkpt>
      <trkpt lat="48.19861" lon="3.48098">
        <ele>95</ele>
        <time>2008-01-22T00:00:00Z</time>
      </trkpt>
      <trkpt lat="48.19926" lon="3.48024">
        <ele>94</ele>
        <time>2008-01-22T00:00:00Z</time>
      </trkpt>
      <trkpt lat="48.1994" lon="3.48015">
        <ele>94</ele>
        <time>2008-01-22T00:00:00Z</time>
      </trkpt>
      <trkpt lat="48.20001" lon="3.47928">
        <ele>95</ele>
        <time>2008-01-22T00:00:00Z</time>
      </trkpt>
      <trkpt lat="48.20016" lon="3.47917">
        <ele>95</ele>
        <time>2008-01-22T00:00:00Z</time>
      </trkpt>
      <trkpt lat="48.20021" lon="3.47909">
        <ele>94</ele>
        <time>2008-01-22T00:00:00Z</time>
      </trkpt>
      <trkpt lat="48.20016" lon="3.47899">
        <ele>94</ele>
        <time>2008-01-22T00:00:00Z</time>
      </trkpt>
      <trkpt lat="48.19942" lon="3.47833">
        <ele>94</ele>
        <time>2008-01-22T00:00:00Z</time>
      </trkpt>
      <trkpt lat="48.19922" lon="3.4781">
        <ele>94</ele>
        <time>2008-01-22T00:00:00Z</time>
      </trkpt>
    </trkseg>
  </trk>
</gpx>